EW8730 Saint Petersburg FL US current weather conditions

sailwx.info

Wind from 127

Air temperature 25.6° C
Dewpoint 24.0° C

Last reported at 2019-Jul-17 04:03 UTC.
Time now 2019-Jul-17 04:22 UTC

Location: N 27°47' W 082°41'.
View on Google Maps.

See reports from other nearby stations

  
Tides and Currents Weather Stations Pressure Air Temp Water Temp Dewpoint Dewpoint Depression Visibility Wind Speed Wind Dir Waves Ship Positions
date/time (UTC)wind fromknots sea level pressurealtimeterstation pressurevisibilityair tempwater tempwave heightnotes
2019-Jul-17 04:08 127 25.6
2019-Jul-17 04:03 127 25.6
2019-Jul-17 03:58 128 25.6
2019-Jul-17 03:53 119 25.6
2019-Jul-17 03:48 119 25.6
2019-Jul-17 03:43 119 25.6
2019-Jul-17 03:38 119 25.6
2019-Jul-17 03:33 120 25.6
2019-Jul-17 03:28 119 25.6
2019-Jul-17 03:23 119 25.6
2019-Jul-17 03:18 119 25.6
2019-Jul-17 03:13 119 0 gusting 2 25.6
2019-Jul-17 03:08 131 0 gusting 2 25.6
2019-Jul-17 03:03 117 0 gusting 2 25.6
2019-Jul-17 02:58 114 0 gusting 2 25.6
2019-Jul-17 02:53 117 25.6
2019-Jul-17 02:48 128 25.6
2019-Jul-17 02:43 044 25.6
2019-Jul-17 02:38 044 26.1
2019-Jul-17 02:33 044 0 gusting 3 26.1
2019-Jul-17 02:28 046 26.1
2019-Jul-17 02:23 115 26.1
2019-Jul-17 02:18 129 26.1
2019-Jul-17 02:13 129 26.7
2019-Jul-17 02:08 129 26.7
2019-Jul-17 02:03 129 26.7
2019-Jul-17 01:58 129 26.7
2019-Jul-17 01:53 129 26.7
2019-Jul-17 01:48 130 27.2
2019-Jul-17 01:43 129 0 gusting 3 27.2
2019-Jul-17 01:38 129 0 gusting 3 27.2
2019-Jul-17 01:33 133 27.8
2019-Jul-17 01:28 133 27.8
2019-Jul-17 01:23 133 27.8
2019-Jul-17 01:18 133 28.3
2019-Jul-17 01:13 133 28.3
2019-Jul-17 01:08 130 0 gusting 2 28.3
2019-Jul-17 01:03 197 0 gusting 3 28.3
2019-Jul-17 00:58 359 0 gusting 5 28.3
2019-Jul-17 00:53 047 1 gusting 10 28.9
2019-Jul-17 00:48 120 1 gusting 10 28.9
2019-Jul-17 00:43 132 0 gusting 5 30.0
2019-Jul-17 00:38 074 30.0
2019-Jul-17 00:33 112 30.0
2019-Jul-17 00:28 112 30.6
2019-Jul-17 00:23 053 30.6
2019-Jul-17 00:18 053 30.6
2019-Jul-17 00:13 056 31.1
2019-Jul-17 00:08 245 31.1
2019-Jul-17 00:03 044 31.7
2019-Jul-16 23:57 040 31.7
2019-Jul-16 23:52 131 32.2
2019-Jul-16 23:47 042 32.2
2019-Jul-16 23:42 300 32.8
2019-Jul-16 23:37 311 0 gusting 3 32.8
2019-Jul-16 23:32 306 0 gusting 3 32.2
2019-Jul-16 23:27 314 0 gusting 6 32.2
2019-Jul-16 23:22 311 0 gusting 6 32.2
2019-Jul-16 23:17 264 0 gusting 5 32.2
2019-Jul-16 23:12 307 0 gusting 5 32.8
2019-Jul-16 23:07 019 0 gusting 3 32.8
2019-Jul-16 23:02 316 0 gusting 4 32.8
2019-Jul-16 22:57 248 1 gusting 4 32.2
2019-Jul-16 22:52 309 1 gusting 5 32.2
2019-Jul-16 22:47 273 0 gusting 5 32.2
2019-Jul-16 22:42 291 0 gusting 5 32.8
2019-Jul-16 22:37 294 0 gusting 6 32.2
2019-Jul-16 22:32 354 1 gusting 6 32.2
2019-Jul-16 22:27 309 1 gusting 5 32.8
2019-Jul-16 22:22 278 0 gusting 5 32.2
2019-Jul-16 22:17 345 0 gusting 4 32.2
2019-Jul-16 22:12 236 0 gusting 4 32.2
2019-Jul-16 22:07 319 0 gusting 4 32.2
2019-Jul-16 22:02 326 0 gusting 3 32.2
2019-Jul-16 21:57 243 1 gusting 4 32.2
2019-Jul-16 21:52 005 1 gusting 4 32.2
2019-Jul-16 21:47 334 0 gusting 4 32.8
2019-Jul-16 21:42 345 1 gusting 5 33.3
2019-Jul-16 21:37 328 1 gusting 5 33.9
2019-Jul-16 21:32 271 1 gusting 5 33.9
2019-Jul-16 21:27 304 1 gusting 5 34.4
2019-Jul-16 21:22 309 2 gusting 7 34.4
2019-Jul-16 21:17 303 2 gusting 7 33.9
2019-Jul-16 21:12 264 1 gusting 5 33.9
2019-Jul-16 21:07 358 1 gusting 6 33.9
2019-Jul-16 21:02 295 2 gusting 6 33.9
2019-Jul-16 20:57 288 1 gusting 6 33.9
2019-Jul-16 20:52 345 1 gusting 5 33.9
2019-Jul-16 20:47 272 1 gusting 5 33.9
2019-Jul-16 20:42 266 2 gusting 6 33.9
2019-Jul-16 20:37 219 2 gusting 6 33.9
2019-Jul-16 20:32 327 2 gusting 6 33.9
2019-Jul-16 20:27 272 2 gusting 6 34.4
2019-Jul-16 20:22 309 2 gusting 6 33.9
2019-Jul-16 20:17 258 2 gusting 6 33.9
2019-Jul-16 20:12 271 1 gusting 6 33.9
2019-Jul-16 20:07 298 2 gusting 6 33.9
2019-Jul-16 20:02 240 2 gusting 5 33.9
2019-Jul-16 19:57 275 1 gusting 5 33.9
2019-Jul-16 19:52 245 1 gusting 6 34.4
2019-Jul-16 19:47 297 2 gusting 6 33.9
2019-Jul-16 19:42 275 2 gusting 6 33.9
2019-Jul-16 19:37 286 1 gusting 6 33.9
2019-Jul-16 19:32 285 1 gusting 4 33.9
2019-Jul-16 19:27 267 1 gusting 5 33.9
2019-Jul-16 19:22 221 1 gusting 5 33.9
2019-Jul-16 19:17 268 1 gusting 5 33.9
2019-Jul-16 19:12 247 1 gusting 5 33.9
2019-Jul-16 19:07 234 2 gusting 5 33.9
2019-Jul-16 19:02 228 1 gusting 5 33.9
2019-Jul-16 18:57 243 0 gusting 5 34.4
2019-Jul-16 18:52 293 34.4
2019-Jul-16 18:47 202 1 gusting 6 34.4
2019-Jul-16 18:42 243 0 gusting 6 35.0
2019-Jul-16 18:32 321 36.1
2019-Jul-16 18:27 223 36.1
2019-Jul-16 18:22 303 35.6
2019-Jul-16 18:17 003 0 gusting 2 35.6
2019-Jul-16 18:12 105 0 gusting 5 35.0
2019-Jul-16 18:07 142 0 gusting 5 35.0
2019-Jul-16 18:02 315 1 gusting 6 34.4
2019-Jul-16 17:57 315 2 gusting 7 34.4
2019-Jul-16 17:52 124 1 gusting 7 34.4
2019-Jul-16 17:47 121 0 gusting 5 34.4
2019-Jul-16 17:42 111 0 gusting 6 34.4
2019-Jul-16 17:37 200 0 gusting 6 34.4
2019-Jul-16 17:32 133 0 gusting 4 34.4
2019-Jul-16 17:27 120 0 gusting 4 34.4
2019-Jul-16 17:22 120 1 gusting 4 33.9
2019-Jul-16 17:17 120 1 gusting 5 33.9
2019-Jul-16 17:12 131 1 gusting 5 34.4
2019-Jul-16 17:07 112 0 gusting 4 34.4
2019-Jul-16 17:02 131 33.9
2019-Jul-16 16:57 200 0 gusting 4 33.9
2019-Jul-16 16:52 128 0 gusting 5 33.9
2019-Jul-16 16:47 125 0 gusting 6 33.9
2019-Jul-16 16:42 119 0 gusting 6 34.4
2019-Jul-16 16:37 116 34.4
2019-Jul-16 16:32 130 33.9
2019-Jul-16 16:27 251 0 gusting 5 33.3
2019-Jul-16 16:22 037 0 gusting 5 33.3
2019-Jul-16 16:17 135 0 gusting 5 33.3
2019-Jul-16 16:12 318 1 gusting 4 33.3
2019-Jul-16 16:07 120 0 gusting 4 33.3
2019-Jul-16 16:02 136 33.3
2019-Jul-16 15:57 136 0 gusting 3 33.3
2019-Jul-16 15:52 127 0 gusting 3 33.3
2019-Jul-16 15:47 129 0 gusting 4 33.3
2019-Jul-16 15:42 120 1 gusting 6 32.8
2019-Jul-16 15:37 120 1 gusting 6 32.8
2019-Jul-16 15:32 132 32.8
2019-Jul-16 15:27 112 32.8
2019-Jul-16 15:22 120 0 gusting 3 32.8
2019-Jul-16 15:17 141 0 gusting 3 32.8
2019-Jul-16 15:12 128 32.8
2019-Jul-16 15:07 101 32.2
2019-Jul-16 15:02 113 0 gusting 4 32.2
2019-Jul-16 14:57 113 0 gusting 4 32.2
2019-Jul-16 14:52 135 0 gusting 3 31.7
2019-Jul-16 14:47 124 1 gusting 4 31.7
2019-Jul-16 14:42 134 1 gusting 5 31.7
2019-Jul-16 14:37 129 0 gusting 5 31.7
2019-Jul-16 14:32 127 0 gusting 2 31.7
2019-Jul-16 14:27 127 0 gusting 3 31.7
2019-Jul-16 14:22 125 1 gusting 4 31.1
2019-Jul-16 14:17 121 1 gusting 4 31.1
2019-Jul-16 14:12 123 1 gusting 5 30.6
2019-Jul-16 14:07 150 1 gusting 5 30.6
2019-Jul-16 14:02 129 1 gusting 3 30.6
2019-Jul-16 13:57 144 1 gusting 4 30.0
2019-Jul-16 13:52 111 2 gusting 4 30.0
2019-Jul-16 13:47 101 1 gusting 4 30.0
2019-Jul-16 13:42 129 1 gusting 4 29.4
2019-Jul-16 13:37 128 1 gusting 4 29.4
2019-Jul-16 13:32 096 2 gusting 5 29.4
2019-Jul-16 13:27 122 2 gusting 5 28.9
2019-Jul-16 13:22 091 1 gusting 3 28.3
2019-Jul-16 13:17 120 0 gusting 4 28.3
2019-Jul-16 13:12 116 1 gusting 5 28.3
2019-Jul-16 13:07 124 1 gusting 6 28.3
2019-Jul-16 13:02 122 1 gusting 6 27.8
2019-Jul-16 12:57 127 1 gusting 5 27.8
2019-Jul-16 12:52 129 1 gusting 5 27.8
2019-Jul-16 12:47 114 1 gusting 4 27.8
2019-Jul-16 12:42 123 0 gusting 4 27.2
2019-Jul-16 12:37 117 0 gusting 3 27.2
2019-Jul-16 12:32 255 1 gusting 4 27.2
2019-Jul-16 12:27 115 2 gusting 5 27.2
2019-Jul-16 12:22 134 1 gusting 6 27.2
2019-Jul-16 12:17 134 0 gusting 6 26.7
2019-Jul-16 12:12 119 0 gusting 3 26.7
2019-Jul-16 12:07 115 0 gusting 3 26.7
2019-Jul-16 12:02 134 1 gusting 3 26.7
2019-Jul-16 11:57 117 0 gusting 3 26.7
2019-Jul-16 11:52 127 0 gusting 3 26.7
2019-Jul-16 11:47 110 0 gusting 2 26.1
2019-Jul-16 11:42 134 26.1
2019-Jul-16 11:37 134 26.1
2019-Jul-16 11:32 137 26.1
2019-Jul-16 11:27 137 26.1
2019-Jul-16 11:22 114 25.6
2019-Jul-16 11:17 114 25.6
2019-Jul-16 11:12 114 25.6
2019-Jul-16 11:07 114 25.6
2019-Jul-16 11:02 114 25.6
2019-Jul-16 10:57 114 25.6
2019-Jul-16 10:52 114 25.6
2019-Jul-16 10:47 114 25.6
2019-Jul-16 10:42 114 25.6
2019-Jul-16 10:37 114 25.6
2019-Jul-16 10:32 114 25.6
2019-Jul-16 10:27 114 25.6
2019-Jul-16 10:22 114 25.6
2019-Jul-16 10:17 114 25.6
2019-Jul-16 10:12 114 25.6
2019-Jul-16 10:07 114 25.6
2019-Jul-16 10:02 114 25.6
2019-Jul-16 09:57 114 25.6
2019-Jul-16 09:52 114 25.6
2019-Jul-16 09:47 139 25.6
2019-Jul-16 09:42 139 25.6
2019-Jul-16 09:37 124 25.6
2019-Jul-16 09:32 125 25.6
2019-Jul-16 09:27 124 25.6
2019-Jul-16 09:22 125 25.6
2019-Jul-16 09:17 125 25.6
2019-Jul-16 09:12 125 25.6
2019-Jul-16 09:07 125 25.6
2019-Jul-16 09:02 125 25.6
2019-Jul-16 08:57 125 25.6
2019-Jul-16 08:52 124 25.6
2019-Jul-16 08:47 125 25.6
2019-Jul-16 08:42 125 25.6
2019-Jul-16 08:36 124 25.6
2019-Jul-16 08:31 125 25.6
2019-Jul-16 08:26 125 26.1
2019-Jul-16 08:21 125 26.1
2019-Jul-16 08:16 125 26.1
2019-Jul-16 08:11 124 26.1
2019-Jul-16 08:06 115 26.1
2019-Jul-16 08:01 115 26.1
2019-Jul-16 07:56 120 26.1
2019-Jul-16 07:51 120 0 gusting 3 26.1
2019-Jul-16 07:46 127 26.1
2019-Jul-16 07:41 113 26.1
2019-Jul-16 07:36 113 26.1
2019-Jul-16 07:31 125 0 gusting 2 26.1
2019-Jul-16 07:26 127 0 gusting 1 26.1
2019-Jul-16 07:21 126 0 gusting 2 26.1
2019-Jul-16 07:16 126 0 gusting 3 26.1
2019-Jul-16 07:11 119 0 gusting 3 26.1
2019-Jul-16 07:06 134 1 gusting 5 26.1
2019-Jul-16 07:01 124 1 gusting 5 26.1
2019-Jul-16 06:56 086 1 gusting 4 26.1
2019-Jul-16 06:51 132 0 gusting 2 25.6
2019-Jul-16 06:46 122 0 gusting 3 25.6
2019-Jul-16 06:41 134 0 gusting 3 25.6
2019-Jul-16 06:36 133 0 gusting 1 25.6
2019-Jul-16 06:31 131 25.6
2019-Jul-16 06:26 136 25.6
2019-Jul-16 06:21 148 25.0
2019-Jul-16 06:16 200 25.0
2019-Jul-16 06:11 200 25.0
2019-Jul-16 06:06 200 25.0
2019-Jul-16 06:01 200 25.0
2019-Jul-16 05:56 200 25.0
2019-Jul-16 05:51 200 25.0
2019-Jul-16 05:46 200 25.0
2019-Jul-16 05:41 200 25.0
2019-Jul-16 05:36 200 25.0
2019-Jul-16 05:31 200 25.0
2019-Jul-16 05:26 200 25.0
2019-Jul-16 05:21 200 25.0
2019-Jul-16 05:16 200 25.0
2019-Jul-16 05:11 200 25.0
2019-Jul-16 05:06 200 25.0
2019-Jul-16 05:01 200 25.0
2019-Jul-16 04:56 200 25.0
2019-Jul-16 04:51 200 25.0
2019-Jul-16 04:46 200 25.0
2019-Jul-16 04:41 200 25.0
2019-Jul-16 04:36 200 25.0
2019-Jul-16 04:31 200 25.0
2019-Jul-16 04:26 200 25.0
2019-Jul-16 04:21 200 25.0
2019-Jul-16 04:16 200 25.0
2019-Jul-16 04:11 200 25.0
2019-Jul-16 04:06 200 25.0
2019-Jul-16 04:01 200 25.0
2019-Jul-16 03:56 200 25.0
2019-Jul-16 03:51 200 25.0
2019-Jul-16 03:46 200 25.0
2019-Jul-16 03:41 200 25.0
2019-Jul-16 03:36 200 25.6
2019-Jul-16 03:31 200 25.6
2019-Jul-16 03:26 200 25.6
2019-Jul-16 03:21 200 25.6
2019-Jul-16 03:16 200 25.6
2019-Jul-16 03:11 200 25.6
2019-Jul-16 03:06 200 25.6
2019-Jul-16 03:01 200 25.6
2019-Jul-16 02:56 200 25.6
2019-Jul-16 02:51 200 25.6
2019-Jul-16 02:46 200 25.6
2019-Jul-16 02:41 200 25.6
2019-Jul-16 02:36 200 25.6
2019-Jul-16 02:31 200 25.6
2019-Jul-16 02:26 200 25.6
2019-Jul-16 02:21 200 25.6
2019-Jul-16 02:16 200 25.6
2019-Jul-16 02:11 200 25.6
2019-Jul-16 02:06 200 25.6
2019-Jul-16 02:01 200 25.6
2019-Jul-16 01:56 200 25.6
2019-Jul-16 01:51 200 25.6
2019-Jul-16 01:46 200 25.6
2019-Jul-16 01:41 200 25.6
2019-Jul-16 01:36 200 25.6
2019-Jul-16 01:31 200 25.6
2019-Jul-16 01:26 200 25.6
2019-Jul-16 01:21 200 25.6
2019-Jul-16 01:16 200 25.6
2019-Jul-16 01:11 200 25.6
2019-Jul-16 01:06 200 25.6
2019-Jul-16 01:01 200 25.6
2019-Jul-16 00:56 200 25.6
2019-Jul-16 00:51 200 25.6
2019-Jul-16 00:46 200 25.6
2019-Jul-16 00:41 200 25.6
2019-Jul-16 00:36 200 25.6
2019-Jul-16 00:31 200 25.6
2019-Jul-16 00:26 200 25.6
2019-Jul-16 00:21 200 25.6
2019-Jul-16 00:16 200 25.0
2019-Jul-16 00:11 200 25.0
2019-Jul-16 00:06 138 25.0
2019-Jul-16 00:01 103 25.0
2019-Jul-15 23:56 103 25.0
2019-Jul-15 23:51 103 25.0
2019-Jul-15 23:46 103 24.4
2019-Jul-15 23:41 103 24.4
2019-Jul-15 23:36 103 24.4
2019-Jul-15 23:31 103 24.4
2019-Jul-15 23:26 103 24.4
2019-Jul-15 23:21 103 24.4
2019-Jul-15 23:16 103 24.4
2019-Jul-15 23:11 103 24.4
2019-Jul-15 23:06 103 1 gusting 8 24.4
2019-Jul-15 23:01 103 5 gusting 13 25.0
2019-Jul-15 22:56 136 6 gusting 13 26.7
2019-Jul-15 22:51 120 4 gusting 11 29.4
2019-Jul-15 22:46 104 2 gusting 11 30.6
2019-Jul-15 22:41 095 31.1
2019-Jul-15 22:36 048 31.7
2019-Jul-15 22:31 004 0 gusting 3 31.7
2019-Jul-15 22:26 290 0 gusting 6 31.7
2019-Jul-15 22:21 322 1 gusting 6 31.7
2019-Jul-15 22:16 272 1 gusting 7 32.2
2019-Jul-15 22:11 289 1 gusting 7 32.8
2019-Jul-15 22:06 297 0 gusting 5 33.3
2019-Jul-15 22:00 258 0 gusting 5 33.3
2019-Jul-15 21:55 298 1 gusting 5 32.8
2019-Jul-15 21:50 212 1 gusting 5 32.8
2019-Jul-15 21:45 295 1 gusting 6 32.8
2019-Jul-15 21:40 302 1 gusting 6 32.8
2019-Jul-15 21:35 290 2 gusting 6 32.2
2019-Jul-15 21:30 307 1 gusting 5 32.2
2019-Jul-15 21:25 322 2 gusting 5 32.2
2019-Jul-15 21:20 354 2 gusting 5 32.2
2019-Jul-15 21:15 012 2 gusting 6 32.2
2019-Jul-15 21:10 313 2 gusting 8 31.7
2019-Jul-15 21:05 304 1 gusting 8 31.7
2019-Jul-15 21:00 269 0 gusting 4 31.7
2019-Jul-15 20:55 309 0 gusting 4 31.7
2019-Jul-15 20:50 240 0 gusting 3 31.7
2019-Jul-15 20:45 281 1 gusting 3 31.7
2019-Jul-15 20:40 269 1 gusting 5 31.7
2019-Jul-15 20:35 290 1 gusting 5 31.7
2019-Jul-15 20:30 321 1 gusting 5 32.2
2019-Jul-15 20:25 331 2 gusting 6 32.8
2019-Jul-15 20:20 336 2 gusting 6 32.8
2019-Jul-15 20:15 259 2 gusting 6 33.3
2019-Jul-15 20:10 193 2 gusting 6 33.3
2019-Jul-15 20:05 308 1 gusting 6 33.3
2019-Jul-15 20:00 265 1 gusting 6 33.3
2019-Jul-15 19:55 269 2 gusting 6 33.3
2019-Jul-15 19:50 328 2 gusting 5 32.8
2019-Jul-15 19:45 259 2 gusting 6 32.2
2019-Jul-15 19:40 278 2 gusting 7 32.2
2019-Jul-15 19:35 259 2 gusting 7 32.2
2019-Jul-15 19:30 270 2 gusting 7 32.2
2019-Jul-15 19:25 233 2 gusting 5 32.2
2019-Jul-15 19:20 229 1 gusting 6 32.2
2019-Jul-15 19:15 274 1 gusting 6 32.8
2019-Jul-15 19:10 276 0 gusting 4 32.8
2019-Jul-15 19:05 285 0 gusting 4 33.3
2019-Jul-15 19:00 293 0 gusting 6 33.3
2019-Jul-15 18:55 297 0 gusting 6 33.3
2019-Jul-15 18:50 238 0 gusting 3 34.4
2019-Jul-15 18:45 231 1 gusting 5 34.4
2019-Jul-15 18:40 307 0 gusting 5 34.4
2019-Jul-15 18:35 350 0 gusting 3 35.0
2019-Jul-15 18:30 271 0 gusting 3 35.0
2019-Jul-15 18:25 302 0 gusting 3 35.0
2019-Jul-15 18:20 114 0 gusting 4 35.6
2019-Jul-15 18:15 157 0 gusting 4 35.6
2019-Jul-15 18:10 116 0 gusting 3 35.0
2019-Jul-15 18:05 132 0 gusting 4 35.0
2019-Jul-15 18:00 127 0 gusting 5 35.0
2019-Jul-15 17:55 128 0 gusting 5 35.0
2019-Jul-15 17:50 127 0 gusting 4 35.0
2019-Jul-15 17:45 296 0 gusting 4 34.4
2019-Jul-15 17:40 047 0 gusting 4 34.4
2019-Jul-15 17:35 136 0 gusting 4 34.4
2019-Jul-15 17:30 124 0 gusting 5 34.4
2019-Jul-15 17:25 119 0 gusting 5 34.4
2019-Jul-15 17:20 113 1 gusting 6 34.4
2019-Jul-15 17:15 132 0 gusting 6 34.4
2019-Jul-15 17:10 047 0 gusting 3 34.4
2019-Jul-15 17:05 138 0 gusting 3 34.4
2019-Jul-15 17:00 110 0 gusting 6 34.4
2019-Jul-15 16:55 122 0 gusting 6 34.4
2019-Jul-15 16:50 122 0 gusting 4 34.4
2019-Jul-15 16:45 123 0 gusting 4 34.4
2019-Jul-15 16:40 117 0 gusting 5 34.4
2019-Jul-15 16:35 127 0 gusting 5 33.9
2019-Jul-15 16:30 114 1 gusting 6 33.9
2019-Jul-15 16:25 122 0 gusting 6 33.9
2019-Jul-15 16:20 130 1 gusting 4 33.3
2019-Jul-15 16:15 119 1 gusting 4 33.3
2019-Jul-15 16:10 126 0 gusting 4 33.3
2019-Jul-15 16:05 126 1 gusting 5 33.3
2019-Jul-15 16:00 123 0 gusting 5 33.3
2019-Jul-15 15:55 120 33.3
2019-Jul-15 15:50 120 0 gusting 2 32.8
2019-Jul-15 15:45 191 0 gusting 3 32.8
2019-Jul-15 15:40 219 0 gusting 4 32.8
2019-Jul-15 15:35 119 0 gusting 4 32.8
2019-Jul-15 15:30 127 0 gusting 5 32.8
2019-Jul-15 15:25 117 0 gusting 5 32.8
2019-Jul-15 15:20 129 0 gusting 3 32.8
2019-Jul-15 15:15 094 0 gusting 4 32.2
2019-Jul-15 15:10 096 1 gusting 4 32.2
2019-Jul-15 15:05 223 0 gusting 4 32.2
2019-Jul-15 15:00 112 0 gusting 4 32.2
2019-Jul-15 14:55 118 1 gusting 5 32.2
2019-Jul-15 14:50 128 0 gusting 5 32.2
2019-Jul-15 14:45 115 0 gusting 3 31.7
2019-Jul-15 14:40 117 0 gusting 3 31.7
2019-Jul-15 14:35 124 0 gusting 3 31.1
2019-Jul-15 14:30 116 1 gusting 4 31.1
2019-Jul-15 14:25 131 1 gusting 4 31.1
2019-Jul-15 14:20 134 2 gusting 5 31.1
2019-Jul-15 14:15 123 2 gusting 5 30.6
2019-Jul-15 14:10 116 1 gusting 5 30.6
2019-Jul-15 14:05 115 1 gusting 5 30.6
2019-Jul-15 14:00 118 1 gusting 6 30.6
2019-Jul-15 13:55 128 1 gusting 6 30.6
2019-Jul-15 13:50 192 1 gusting 4 30.0
2019-Jul-15 13:45 105 1 gusting 4 30.0
2019-Jul-15 13:40 094 1 gusting 6 30.0
2019-Jul-15 13:35 122 1 gusting 6 29.4
2019-Jul-15 13:30 117 0 gusting 3 29.4
2019-Jul-15 13:25 110 1 gusting 4 28.9
2019-Jul-15 13:20 128 1 gusting 4 28.9
2019-Jul-15 13:15 112 1 gusting 4 28.3
2019-Jul-15 13:10 123 1 gusting 4 28.3
2019-Jul-15 13:05 114 1 gusting 4 28.3
2019-Jul-15 13:00 119 2 gusting 6 27.8
2019-Jul-15 12:55 118 1 gusting 6 27.8
2019-Jul-15 12:50 116 1 gusting 4 27.8
2019-Jul-15 12:45 126 0 gusting 3 27.8
2019-Jul-15 12:40 127 0 gusting 3 27.8
2019-Jul-15 12:35 120 0 gusting 2 27.2
2019-Jul-15 12:30 136 1 gusting 3 27.2
2019-Jul-15 12:25 108 0 gusting 4 27.2
2019-Jul-15 12:20 137 1 gusting 4 27.2
2019-Jul-15 12:15 128 0 gusting 3 26.7
2019-Jul-15 12:10 115 0 gusting 4 26.7
2019-Jul-15 12:05 124 0 gusting 4 26.7
2019-Jul-15 12:00 120 0 gusting 3 26.7
2019-Jul-15 11:55 129 0 gusting 3 26.7
2019-Jul-15 11:50 134 0 gusting 3 26.1
2019-Jul-15 11:45 117 26.1
2019-Jul-15 11:40 131 26.1
2019-Jul-15 11:35 131 26.1
2019-Jul-15 11:30 131 26.1
2019-Jul-15 11:25 131 25.6
2019-Jul-15 11:20 131 25.6
2019-Jul-15 11:15 130 25.6
2019-Jul-15 11:10 131 25.6
2019-Jul-15 11:05 131 25.6
2019-Jul-15 11:00 129 25.6
2019-Jul-15 10:55 129 25.6
2019-Jul-15 10:50 129 25.6
2019-Jul-15 10:45 129 25.6
2019-Jul-15 10:40 129 25.6
2019-Jul-15 10:35 129 25.6
2019-Jul-15 10:30 129 25.6
2019-Jul-15 10:25 129 25.6
2019-Jul-15 10:20 129 25.6
2019-Jul-15 10:15 129 25.6
2019-Jul-15 10:10 129 25.6
2019-Jul-15 10:05 129 25.6
2019-Jul-15 10:00 129 26.1
2019-Jul-15 09:55 129 26.1
2019-Jul-15 09:50 129 26.1
2019-Jul-15 09:45 129 26.1
2019-Jul-15 09:40 129 26.1
2019-Jul-15 09:35 129 26.1
2019-Jul-15 09:30 129 26.1
2019-Jul-15 09:25 123 26.1
2019-Jul-15 09:20 123 26.1
2019-Jul-15 09:15 123 0 gusting 2 26.7
2019-Jul-15 09:10 123 0 gusting 2 26.7
2019-Jul-15 09:05 131 0 gusting 3 26.7
2019-Jul-15 09:00 112 0 gusting 5 26.7
2019-Jul-15 08:55 123 0 gusting 5 26.7
2019-Jul-15 08:50 127 1 gusting 6 26.7
2019-Jul-15 08:45 127 1 gusting 6 26.7
2019-Jul-15 08:40 134 1 gusting 4 26.7
2019-Jul-15 08:35 117 1 gusting 3 26.7
2019-Jul-15 08:30 127 1 gusting 5 26.7
2019-Jul-15 08:25 143 1 gusting 5 26.7
2019-Jul-15 08:20 115 1 gusting 5 26.7
2019-Jul-15 08:15 115 1 gusting 5 26.7
2019-Jul-15 08:10 129 1 gusting 6 26.7
2019-Jul-15 08:05 127 1 gusting 6 26.7
2019-Jul-15 08:00 126 1 gusting 4 26.7
2019-Jul-15 07:55 122 1 gusting 5 26.7
2019-Jul-15 07:50 124 1 gusting 5 26.7
2019-Jul-15 07:45 128 1 gusting 4 26.7
2019-Jul-15 07:40 139 2 gusting 5 27.2
2019-Jul-15 07:30 117 1 gusting 4 27.2
2019-Jul-15 07:25 117 1 gusting 5 27.2
2019-Jul-15 07:20 136 1 gusting 5 27.2
2019-Jul-15 07:15 112 1 gusting 4 27.2
2019-Jul-15 07:10 094 1 gusting 4 27.2
2019-Jul-15 07:05 127 1 gusting 4 27.2
2019-Jul-15 07:00 122 1 gusting 4 27.2
2019-Jul-15 06:55 121 1 gusting 5 27.2
2019-Jul-15 06:50 129 1 gusting 5 27.2
2019-Jul-15 06:45 122 1 gusting 4 27.2
2019-Jul-15 06:40 124 1 gusting 4 27.8
2019-Jul-15 06:35 113 2 gusting 4 27.8
2019-Jul-15 06:30 097 2 gusting 5 27.8
2019-Jul-15 06:25 125 2 gusting 6 27.8
2019-Jul-15 06:20 129 1 gusting 6 27.8
2019-Jul-15 06:15 113 2 gusting 6 27.8
2019-Jul-15 06:10 129 2 gusting 6 27.8
2019-Jul-15 06:05 113 2 gusting 6 27.8
2019-Jul-15 06:00 137 3 gusting 6 28.3
2019-Jul-15 05:55 136 2 gusting 6 28.3
2019-Jul-15 05:50 101 3 gusting 8 28.3
2019-Jul-15 05:45 125 3 gusting 8 28.3
2019-Jul-15 05:40 125 2 gusting 6 28.3
2019-Jul-15 05:35 113 3 gusting 6 28.3
2019-Jul-15 05:30 112 2 gusting 6 28.9
2019-Jul-15 05:25 115 1 gusting 5 28.9
2019-Jul-15 05:20 125 2 gusting 5 28.9
2019-Jul-15 05:15 122 3 gusting 6 28.9
2019-Jul-15 05:10 117 2 gusting 6 28.9
2019-Jul-15 05:05 117 2 gusting 6 28.9
2019-Jul-15 05:00 106 2 gusting 7 28.9
2019-Jul-15 04:55 122 2 gusting 7 28.9
2019-Jul-15 04:50 111 1 gusting 4 29.4
2019-Jul-15 04:45 120 0 gusting 3 29.4
2019-Jul-15 04:40 120 1 gusting 5 29.4
2019-Jul-15 04:35 124 1 gusting 5 29.4
2019-Jul-15 04:30 114 0 gusting 4 29.4
2019-Jul-15 04:25 115 0 gusting 2 29.4
2019-Jul-15 04:20 120 0 gusting 2 29.4
2019-Jul-15 04:15 140 0 gusting 2 29.4
2019-Jul-15 04:10 129 0 gusting 2 29.4
2019-Jul-15 04:05 126 0 gusting 3 29.4
2019-Jul-15 04:00 122 0 gusting 3 28.9